Flight Track Log - Related Links

Times and Time Zones

All times are in EDT time to prevent confusion due to time zone crossing. See the AAY883 flight status page for this flight to view local times or setup timezone preferences in your user account.

Time Position Orientation Groundspeed Altitude Reporting Facility
EDT Latitude Longitude Course Direction KTS MPH feet Rate Location/Type
Thu 07:52:23 PM 42.4400 -85.4391 172° South 365 420 13,200  Level FlightAware ADS-B
Thu 07:52:59 PM 42.3797 -85.4282 173° South 373 429 14,500 2,125 Climbing FlightAware ADS-B
Thu 07:53:59 PM 42.2755 -85.4098 173° South 387 445 16,600 1,938 Climbing FlightAware ADS-B
Thu 07:54:35 PM 42.2111 -85.4037 185° South 399 459 17,600 1,105 Climbing FlightAware ADS-B
Thu 07:55:15 PM 42.1361 -85.4172 188° South 396 456 18,000 1,107 Climbing FlightAware ADS-B
Thu 07:56:18 PM 42.0235 -85.4280 170° South 412 474 19,500 1,588 Climbing FlightAware ADS-B
Thu 07:56:57 PM 41.9544 -85.4113 170° South 417 480 20,700 1,725 Climbing FlightAware ADS-B
Thu 07:57:38 PM 41.8716 -85.3922 170° South 423 487 21,800 1,808 Climbing FlightAware ADS-B
Thu 07:58:10 PM 41.8053 -85.3769 170° South 429 494 22,900 1,556 Climbing FlightAware ADS-B
Thu 07:58:59 PM 41.7308 -85.3596 170° South 435 501 23,900 1,200 Climbing FlightAware ADS-B
Thu 07:59:35 PM 41.6354 -85.3376 170° South 448 516 24,600 1,304 Climbing FlightAware ADS-B
Thu 08:00:08 PM 41.5730 -85.3232 170° South 450 518 25,400 765 Climbing FlightAware ADS-B
Thu 08:05:28 PM 40.8984 -85.0953 154° Southeast 480 552 29,100 727 Climbing FlightAware ADS-B
Thu 08:06:03 PM 40.8301 -85.0510 156° South 484 557 29,700 980 Climbing FlightAware ADS-B
Thu 08:06:17 PM 40.8005 -85.0365 167° South 483 556 29,900 750 Climbing FlightAware ADS-B
Thu 08:06:51 PM 40.7243 -85.0256 177° South 485 558 30,300 1,217 Climbing FlightAware ADS-B
Thu 08:08:35 PM 40.4982 -85.0049 176° South 477 549 32,700 1,412 Climbing FlightAware ADS-B
Thu 08:09:07 PM 40.4460 -85.0001 176° South 472 543 33,500 1,233 Climbing FlightAware ADS-B
Thu 08:09:48 PM 40.3353 -84.9898 176° South 472 543 34,200 874 Climbing FlightAware ADS-B
Thu 08:10:50 PM 40.1986 -84.9783 176° South 477 549 35,000 913 Climbing FlightAware ADS-B
Thu 08:11:20 PM 40.1415 -84.9733 176° South 474 545 35,600 822 Climbing FlightAware ADS-B
Thu 08:12:03 PM 40.0438 -84.9646 176° South 467 537 36,000 659 Climbing FlightAware ADS-B
Thu 08:12:51 PM 39.9508 -84.9561 176° South 469 540 36,600 262 Climbing Chicago Center
Thu 08:15:52 PM 39.5578 -84.9214 176° South 458 527 37,000 84 Climbing FlightAware ADS-B (KCVG)
Thu 08:17:36 PM 39.3390 -84.9019 176° South 454 522 37,000  Level FlightAware ADS-B
Thu 08:18:49 PM 39.1890 -84.8886 176° South 450 518 37,000  Level FlightAware ADS-B (KCVG)
Thu 08:19:34 PM 39.0935 -84.8802 176° South 450 518 37,000  Level FlightAware ADS-B
Thu 08:20:05 PM 39.0254 -84.8743 176° South 451 519 37,000  Level FlightAware ADS-B (KCVG)
Thu 08:20:38 PM 38.9689 -84.8694 176° South 453 521 37,000  Level FlightAware ADS-B
Thu 08:21:09 PM 38.8934 -84.8629 176° South 453 521 37,000  Level FlightAware ADS-B (KCVG)
Thu 08:21:43 PM 38.8244 -84.8569 176° South 452 520 37,000  Level FlightAware ADS-B
Thu 08:22:18 PM 38.7489 -84.8504 176° South 450 518 37,000  Level FlightAware ADS-B (KCVG)
Thu 08:22:52 PM 38.6803 -84.8443 176° South 446 513 37,000  Level FlightAware ADS-B
Thu 08:23:25 PM 38.6107 -84.8383 176° South 444 511 37,000  Level FlightAware ADS-B
Thu 08:24:06 PM 38.5260 -84.8310 176° South 444 511 37,000  Level FlightAware ADS-B (KCVG)
Thu 08:24:40 PM 38.4565 -84.8251 176° South 446 513 37,000  Level FlightAware ADS-B (KCVG)
Thu 08:25:24 PM 38.3650 -84.8171 176° South 448 516 37,000  Level FlightAware ADS-B
Thu 08:25:57 PM 38.2966 -84.8113 176° South 449 517 37,000  Level FlightAware ADS-B (KCVG)
Thu 08:26:59 PM 38.1699 -84.8005 176° South 451 519 37,000  Level FlightAware ADS-B (KCVG)
Thu 08:27:43 PM 38.0849 -84.7932 176° South 450 518 37,000 80 Level FlightAware ADS-B (KCVG)
Thu 08:28:14 PM 38.0126 -84.7870 176° South 448 516 37,100  Climbing FlightAware ADS-B (KCVG)
Thu 08:29:10 PM 37.9242 -84.7795 176° South 444 511 37,000 -67 Descending FlightAware ADS-B
Thu 08:29:44 PM 37.8266 -84.7711 176° South 443 510 37,000  Level FlightAware ADS-B (KCVG)
Thu 08:30:25 PM 37.7452 -84.7643 176° South 441 507 37,000  Level FlightAware ADS-B
Thu 08:31:35 PM 37.6002 -84.7520 176° South 439 505 37,000  Level FlightAware ADS-B
Thu 08:32:33 PM 37.4823 -84.7421 176° South 440 506 37,000  Level FlightAware ADS-B
Thu 08:33:13 PM 37.4095 -84.7360 176° South 440 506 37,000  Level FlightAware ADS-B
Thu 08:34:36 PM 37.2326 -84.7214 176° South 441 507 37,000  Level FlightAware ADS-B
Thu 08:37:14 PM 36.9179 -84.6951 176° South 447 514 37,000  Level FlightAware ADS-B
Thu 08:40:24 PM 36.5132 -84.6620 176° South 453 521 37,000  Level FlightAware ADS-B
Thu 08:41:21 PM 36.3930 -84.6522 176° South 451 519 37,000  Level FlightAware ADS-B
Thu 08:42:29 PM 36.2526 -84.6407 176° South 446 513 37,000  Level FlightAware ADS-B
Thu 08:45:46 PM 36.7143 -84.6784 176° South 442 509 37,000  Level FlightAware ADS-B (KMDQ)
Thu 08:46:35 PM 35.7536 -84.5994 176° South 446 513 37,000  Level Indianapolis Center
Thu 08:51:54 PM 35.0663 -84.5462 176° South 436 502 37,000  Level FlightAware ADS-B (KDZJ)
Thu 08:52:34 PM 34.9857 -84.5398 176° South 436 502 37,000  Level FlightAware ADS-B (KDZJ)
Thu 08:53:15 PM 34.9017 -84.5332 176° South 436 502 37,000  Level FlightAware ADS-B (KDZJ)
Thu 08:53:54 PM 34.8211 -84.5270 176° South 436 502 37,000  Level FlightAware ADS-B (KDZJ)
Thu 08:54:33 PM 34.7396 -84.5206 176° South 437 503 37,000  Level FlightAware ADS-B (KDZJ)
Thu 08:55:14 PM 34.6559 -84.5140 176° South 436 502 37,000  Level FlightAware ADS-B (KDZJ)
Thu 08:55:53 PM 34.5752 -84.5077 176° South 436 502 37,000  Level FlightAware ADS-B (KDZJ)
Thu 08:56:34 PM 34.4920 -84.5012 176° South 436 502 37,000  Level FlightAware ADS-B (KDZJ)
Thu 08:57:14 PM 34.4105 -84.4949 176° South 437 503 37,000  Level FlightAware ADS-B (KDZJ)
Thu 08:57:54 PM 34.3273 -84.4884 176° South 439 505 37,000  Level FlightAware ADS-B (KDZJ)
Thu 08:58:34 PM 34.2453 -84.4821 176° South 449 517 37,000  Level FlightAware ADS-B (KDZJ)
Thu 08:59:14 PM 34.1612 -84.4756 176° South 449 517 37,000  Level FlightAware ADS-B (KDZJ)
Thu 08:59:53 PM 34.0799 -84.4694 176° South 448 516 37,000  Level FlightAware ADS-B (KDZJ)
Thu 09:00:34 PM 33.9968 -84.4630 176° South 449 517 37,000  Level FlightAware ADS-B (KDZJ)
Thu 09:01:12 PM 33.9157 -84.4567 176° South 449 517 37,000  Level FlightAware ADS-B (KDZJ)
Thu 09:01:46 PM 33.8472 -84.4515 176° South 449 517 37,000  Level FlightAware ADS-B (KDZJ)
Thu 09:03:15 PM 33.7081 -84.4433 176° South 455 524 37,000  Level Atlanta Center
Thu 09:05:15 PM 33.4450 -84.4222 176° South 460 529 37,000  Level Atlanta Center
Thu 09:06:15 PM 33.3242 -84.4042 173° South 460 529 37,000  Level Atlanta Center
Thu 09:07:15 PM 33.1989 -84.3889 174° South 460 529 37,000  Level Atlanta Center
Thu 09:08:15 PM 33.0758 -84.3686 172° South 455 524 37,000  Level Atlanta Center
Thu 09:10:15 PM 32.8253 -84.3306 173° South 455 524 37,000  Level Atlanta Center
Thu 09:11:15 PM 32.7147 -84.3153 173° South 455 524 37,000  Level Atlanta Center
Thu 09:12:15 PM 32.5897 -84.2953 172° South 455 524 37,000  Level Atlanta Center
Thu 09:13:15 PM 32.4644 -84.2778 173° South 455 524 37,000  Level Atlanta Center
Thu 09:14:15 PM 32.3392 -84.2578 172° South 455 524 37,000  Level Atlanta Center
Thu 09:15:15 PM 32.2161 -84.2403 173° South 455 524 37,000  Level Atlanta Center
Thu 09:16:15 PM 32.0908 -84.2203 172° South 455 524 37,000  Level Atlanta Center
Thu 09:17:15 PM 31.9636 -84.2028 173° South 455 524 37,000  Level Atlanta Center
Thu 09:18:10 PM 31.8364 -84.1839 173° South 452 520 37,000  Level Jacksonville Center
Thu 09:26:03 PM 30.8353 -84.0329 164° South 458 527 37,000  Level FlightAware ADS-B (KONZ)
Thu 09:26:34 PM 30.7734 -84.0119 164° South 458 527 37,000  Level FlightAware ADS-B (KONZ)
Thu 09:27:13 PM 30.6928 -83.9854 164° South 457 526 37,000  Level FlightAware ADS-B (KONZ)
Thu 09:27:44 PM 30.6307 -83.9650 164° South 457 526 37,000  Level FlightAware ADS-B (KONZ)
Thu 09:28:14 PM 30.5692 -83.9448 164° South 457 526 37,000  Level FlightAware ADS-B (KONZ)
Thu 09:28:44 PM 30.5175 -83.9212 154° Southeast 459 528 37,000  Level FlightAware ADS-B (KONZ)
Thu 09:29:14 PM 30.4532 -83.8849 154° Southeast 459 528 37,000  Level FlightAware ADS-B (KONZ)
Thu 09:29:44 PM 30.3965 -83.8523 154° Southeast 457 526 37,000  Level FlightAware ADS-B (KONZ)
Thu 09:30:14 PM 30.3398 -83.8199 154° Southeast 456 525 37,000 -86 Level FlightAware ADS-B (KONZ)
Thu 09:30:54 PM 30.2626 -83.7763 154° Southeast 457 526 36,900 -76 Descending FlightAware ADS-B (KONZ)
Thu 09:31:33 PM 30.2067 -83.7452 154° Southeast 463 533 36,900 86 Level FlightAware ADS-B (KONZ)
Thu 09:32:04 PM 30.1350 -83.7055 155° Southeast 466 536 37,000 -87 Climbing FlightAware ADS-B (KONZ)
Thu 09:32:42 PM 30.0530 -83.6616 155° Southeast 467 537 36,800 -480 Descending FlightAware ADS-B (KONZ)
Thu 09:33:44 PM 29.9335 -83.5973 155° Southeast 462 532 36,200 -811 Descending FlightAware ADS-B (KONZ)
Thu 09:35:10 PM 29.7658 -83.5314 155° Southeast 464 534 34,800 -945 Descending Jacksonville Center
Thu 09:36:10 PM 29.6364 -83.5281 179° South 455 524 33,900 -900 Descending Jacksonville Center
Thu 09:37:10 PM 29.5031 -83.5203 177° South 468 539 33,000 -500 Descending Jacksonville Center
Thu 09:38:10 PM 29.3756 -83.5169 179° South 468 539 32,900 -50 Descending Jacksonville Center
Thu 09:39:10 PM 29.2442 -83.5114 178° South 468 539 32,900 -1,150 Level Jacksonville Center
Thu 09:40:10 PM 29.1297 -83.4558 157° South 453 521 30,600 -2,800 Descending Jacksonville Center
Thu 09:41:10 PM 29.0192 -83.3864 151° Southeast 440 506 27,300 -1,850 Descending Jacksonville Center
Thu 09:42:10 PM 28.9150 -83.3172 150° Southeast 447 514 26,900 -450 Descending Jacksonville Center
Thu 09:43:10 PM 28.8111 -83.2503 151° Southeast 434 499 26,400 -1,950 Descending Jacksonville Center
Thu 09:44:10 PM 28.7067 -83.1861 152° Southeast 429 494 23,000 -3,650 Descending Jacksonville Center
Thu 09:45:10 PM 28.5983 -83.1147 150° Southeast 429 494 19,100 -3,720 Descending Jacksonville Center
Thu 09:46:40 PM 28.4333 -83.0167 152° Southeast 431 496 13,700 -2,792 Descending Tampa TRACON
Thu 09:47:34 PM 28.3500 -82.9667 152° Southeast 395 455 12,400 -1,129 Descending Tampa TRACON
Thu 09:48:05 PM 28.3158 -82.9456 151° Southeast 387 445 12,100 -1,097 Descending Miami Center
Thu 09:49:07 PM 28.2325 -82.9042 156° South 328 377 10,700 -1,901 Descending Miami Center
Thu 09:49:46 PM 28.1667 -82.8667 153° Southeast 308 354 8,900 -2,258 Descending Tampa TRACON
Thu 09:50:40 PM 28.1000 -82.8333 156° South 299 344 7,200 -1,737 Descending Tampa TRACON
Thu 09:51:40 PM 28.0167 -82.8000 161° South 292 336 5,600 -1,895 Descending Tampa TRACON
Thu 09:52:34 PM 27.9500 -82.7833 168° South 278 320 3,600 -1,667 Descending Tampa TRACON
Thu 09:53:28 PM 27.8833 -82.7667 168° South 246 283 2,600 -789 Descending Tampa TRACON
Thu 09:54:28 PM 27.8333 -82.7667 180° South 217 250 2,100 -474 Descending Tampa TRACON
Thu 09:55:22 PM 27.8167 -82.7333 119° Southeast 161 185 1,700 -470 Descending Tampa TRACON
Thu 09:56:23 PM 27.8333 -82.6833 69° East 131 151 1,200 -496 Descending Tampa TRACON
Thu 09:57:23 PM 27.8667 -82.6833 360° North 128 147 700 -500 Descending Tampa TRACON

Login

Don't have an account? Register now (free) for customized features, flight alerts, and more!